Date String (YYYY-MM-DD hh:mm:ss) UTC,Instrument flags,Ambient pressure (hPa),Sample flow (lpm),Bypass flow (lpm),Sample temperature (°C),Ambient temperature (°C),ASC tube jacket temperature (°C),LED temperature (°C),Box temperature (°C),Sample RH (%),Span deviation,Mass concentration (μg/m³),Mass concentration (μg/m³),Mass concentration (μg/m³)
DateTimeUTC,F1_M11,P_M11,Q1_M11,Q2_M11,T1_M11,T2_M11,T3_M11,T4_M11,T5_M11,U1_M11,ZSPAN_M11,X0_M11,X2_M11,X1_M11
2021-11-07 23:00:00,,0824.0,4.99,0.00,29.6,28.8,00.0,38.5,31.5,06.0,0000.0,0003.60,0001.49,0001.15
2021-11-07 23:01:00,,0824.0,5.00,0.00,29.7,28.9,00.0,38.5,31.6,06.0,0000.0,0003.55,0001.47,0001.14
2021-11-07 23:02:00,,0824.0,4.99,0.00,29.7,28.9,00.0,38.5,31.7,06.0,0000.0,0003.40,0001.46,0001.12
2021-11-07 23:03:00,,0824.0,4.99,0.00,29.8,29.0,00.0,38.6,31.7,06.0,0000.0,0002.80,0001.46,0001.11
2021-11-07 23:04:00,,0824.0,5.01,0.00,29.8,28.6,00.0,38.6,31.6,06.0,0000.0,0002.77,0001.46,0001.12
2021-11-07 23:05:00,,0824.1,4.99,0.00,29.7,26.5,00.0,38.6,31.2,06.1,0000.0,0002.57,0001.45,0001.11
2021-11-07 23:06:00,,0824.0,5.00,0.00,29.6,25.5,00.0,38.6,30.9,06.1,0000.0,0002.16,0001.46,0001.12
2021-11-07 23:07:00,,0824.0,5.01,0.00,29.5,25.8,00.0,38.5,31.0,06.2,0000.0,0002.30,0001.51,0001.13
2021-11-07 23:08:00,,0824.0,5.00,0.00,29.4,26.3,00.0,38.5,31.0,06.3,0000.0,0002.67,0001.55,0001.13
2021-11-07 23:09:00,,0824.0,5.00,0.00,29.4,26.7,00.0,38.4,31.0,06.3,0000.0,0003.18,0001.58,0001.13
2021-11-07 23:10:00,,0824.0,4.99,0.00,29.4,27.2,00.0,38.4,31.1,06.4,0000.0,0004.06,0001.57,0001.12
2021-11-07 23:11:00,,0824.0,5.00,0.00,29.4,27.5,00.0,38.4,31.2,06.3,0000.0,0004.13,0001.56,0001.12
2021-11-07 23:12:00,,0824.0,5.01,0.00,29.4,27.8,00.0,38.4,31.2,06.3,0000.0,0004.25,0001.58,0001.12
2021-11-07 23:13:00,,0824.0,5.00,0.00,29.5,28.1,00.0,38.4,31.3,06.3,0000.0,0004.29,0001.59,0001.12
2021-11-07 23:14:00,,0824.0,5.00,0.00,29.5,28.3,00.0,38.4,31.3,06.3,0000.0,0004.61,0001.57,0001.11
2021-11-07 23:15:00,,0824.0,5.01,0.00,29.5,28.4,00.0,38.4,31.4,06.3,0000.0,0005.98,0001.57,0001.11
2021-11-07 23:16:00,,0824.0,4.99,0.00,29.6,28.5,00.0,38.4,31.4,06.3,0000.0,0007.25,0001.57,0001.12
2021-11-07 23:17:00,,0824.0,5.01,0.00,29.6,28.6,00.0,38.5,31.5,06.3,0000.0,0008.13,0001.57,0001.13
2021-11-07 23:18:00,,0824.0,5.01,0.00,29.7,28.7,00.0,38.5,31.5,06.2,0000.0,0008.19,0001.54,0001.13
2021-11-07 23:19:00,,0824.0,5.02,0.00,29.7,28.8,00.0,38.5,31.6,06.2,0000.0,0008.24,0001.54,0001.13
2021-11-07 23:20:00,,0824.0,5.00,0.00,29.7,28.9,00.0,38.5,31.6,06.2,0000.0,0008.67,0001.51,0001.14
2021-11-07 23:21:00,,0823.9,4.99,0.00,29.8,28.9,00.0,38.6,31.7,06.2,0000.0,0009.12,0001.54,0001.14
2021-11-07 23:22:00,,0823.9,5.00,0.00,29.8,29.0,00.0,38.6,31.7,06.1,0000.0,0009.84,0001.58,0001.16
2021-11-07 23:23:00,,0823.9,5.02,0.00,29.8,27.9,00.0,38.6,31.5,06.2,0000.0,0009.90,0001.63,0001.18
2021-11-07 23:24:00,,0824.0,5.00,0.00,29.7,26.4,00.0,38.6,31.2,06.2,0000.0,0009.93,0001.65,0001.19
2021-11-07 23:25:00,,0824.0,5.00,0.00,29.6,26.5,00.0,38.6,31.2,06.2,0000.0,0009.75,0001.67,0001.20
2021-11-07 23:26:00,,0824.0,5.00,0.00,29.6,26.8,00.0,38.6,31.2,06.2,0000.0,0008.97,0001.64,0001.20
2021-11-07 23:27:00,,0824.0,5.00,0.00,29.5,27.2,00.0,38.5,31.2,06.2,0000.0,0008.08,0001.64,0001.20
2021-11-07 23:28:00,,0824.1,4.99,0.00,29.6,27.5,00.0,38.5,31.3,06.2,0000.0,0007.50,0001.66,0001.20
2021-11-07 23:29:00,,0824.0,4.99,0.00,29.6,27.9,00.0,38.5,31.3,06.2,0000.0,0007.55,0001.74,0001.22
2021-11-07 23:30:00,,0824.0,5.00,0.00,29.6,28.1,00.0,38.5,31.4,06.2,0000.0,0007.64,0001.81,0001.27
2021-11-07 23:31:00,,0824.1,5.00,0.00,29.6,28.4,00.0,38.5,31.4,06.2,0000.0,0006.79,0001.84,0001.28
2021-11-07 23:32:00,,0824.2,5.00,0.00,29.7,28.6,00.0,38.5,31.5,06.2,0000.0,0005.28,0001.85,0001.29
2021-11-07 23:33:00,,0824.1,5.00,0.00,29.7,28.7,00.0,38.6,31.5,06.1,0000.0,0003.98,0001.85,0001.27
2021-11-07 23:34:00,,0824.1,5.01,0.00,29.7,28.8,00.0,38.6,31.6,06.0,0000.0,0003.89,0001.85,0001.27
2021-11-07 23:35:00,,0824.1,4.99,0.00,29.8,28.9,00.0,38.6,31.7,05.9,0000.0,0003.99,0001.87,0001.27
2021-11-07 23:36:00,,0824.1,5.01,0.00,29.8,29.0,00.0,38.6,31.7,05.9,0000.0,0004.10,0001.89,0001.26
2021-11-07 23:37:00,,0824.1,4.99,0.00,29.9,29.0,00.0,38.7,31.7,05.8,0000.0,0004.20,0001.91,0001.26
2021-11-07 23:38:00,,0824.1,5.01,0.00,29.9,27.8,00.0,38.7,31.5,05.8,0000.0,0004.40,0001.95,0001.27
2021-11-07 23:39:00,,0824.1,4.98,0.00,29.7,25.7,00.0,38.6,31.0,05.8,0000.0,0005.05,0001.93,0001.27
2021-11-07 23:40:00,,0824.1,5.00,0.00,29.6,25.4,00.0,38.6,30.9,05.9,0000.0,0005.75,0001.91,0001.26
2021-11-07 23:41:00,,0824.0,5.01,0.00,29.5,25.8,00.0,38.6,30.9,05.9,0000.0,0005.54,0001.91,0001.23
2021-11-07 23:42:00,,0824.1,5.00,0.00,29.4,26.3,00.0,38.5,30.9,05.9,0000.0,0006.62,0001.93,0001.24
2021-11-07 23:43:00,,0824.1,4.99,0.00,29.4,26.7,00.0,38.5,31.0,05.8,0000.0,0007.24,0001.94,0001.23
2021-11-07 23:44:00,,0824.1,5.00,0.00,29.4,27.2,00.0,38.4,31.1,05.8,0000.0,0007.57,0001.97,0001.24
2021-11-07 23:45:00,,0824.1,5.01,0.00,29.4,27.5,00.0,38.4,31.1,05.8,0000.0,0008.16,0001.97,0001.25
2021-11-07 23:46:00,,0824.1,5.01,0.00,29.4,27.8,00.0,38.4,31.2,05.8,0000.0,0008.34,0001.91,0001.24
2021-11-07 23:47:00,,0824.1,5.00,0.00,29.4,28.0,00.0,38.4,31.2,05.8,0000.0,0008.34,0001.92,0001.25
2021-11-07 23:48:00,,0824.2,5.00,0.00,29.5,28.2,00.0,38.4,31.3,05.8,0000.0,0008.39,0001.93,0001.27
2021-11-07 23:49:00,,0824.2,5.00,0.00,29.5,28.4,00.0,38.4,31.3,05.8,0000.0,0008.44,0001.93,0001.28
2021-11-07 23:50:00,,0824.2,5.00,0.00,29.6,28.5,00.0,38.4,31.4,05.8,0000.0,0008.52,0001.98,0001.29
2021-11-07 23:51:00,,0824.3,5.01,0.00,29.6,28.7,00.0,38.5,31.4,05.8,0000.0,0008.33,0001.93,0001.29
2021-11-07 23:52:00,,0824.3,4.99,0.00,29.6,28.8,00.0,38.5,31.5,05.7,0000.0,0008.46,0001.88,0001.29
2021-11-07 23:53:00,,0824.2,5.02,0.00,29.7,28.8,00.0,38.5,31.5,05.7,0000.0,0008.30,0001.84,0001.29
2021-11-07 23:54:00,,0824.2,5.00,0.00,29.7,28.9,00.0,38.5,31.6,05.7,0000.0,0008.03,0001.84,0001.29
2021-11-07 23:55:00,,0824.2,5.00,0.00,29.8,29.0,00.0,38.6,31.6,05.7,0000.0,0007.75,0001.79,0001.28
2021-11-07 23:56:00,,0824.3,5.01,0.00,29.8,29.0,00.0,38.6,31.6,05.7,0000.0,0006.96,0001.77,0001.28
2021-11-07 23:57:00,,0824.3,5.00,0.00,29.8,29.1,00.0,38.6,31.7,05.7,0000.0,0006.45,0001.76,0001.28
2021-11-07 23:58:00,,0824.3,5.00,0.00,29.9,29.2,00.0,38.7,31.7,05.7,0000.0,0006.46,0001.77,0001.27
2021-11-07 23:59:00,,0824.2,5.00,0.00,29.9,29.2,00.0,38.7,31.8,05.7,0000.0,0006.51,0001.76,0001.26
